EDDCEDDN

Guest
Details From EDDC - Dresden
To EDDN - Nurnberg
Flight Number -
Tags Generated
Created
Modified
Stats Distance 142 nm / 263 km
Max Altitude 0 ft / 0 m
Waypoints 2
Social Downloads 0
Likes 0
Share VATSIM

Download

Looking for another format? Having issues loading an existing format? Contact us
Advertisement - Login to hide

Notes

Generated

Route

EDDC EDDN

ID Type Via Altitude Latitude Longitude Leg Dist Tot Dist Heading (true) Name
O EDDC APT - 0 ft / 0 m 51.12425˚ 13.75544˚ - 0 nm - -
O EDDN APT - 0 ft / 0 m 49.50055˚ 11.05918˚ 142 nm 142 nm 228° / 226° -

Altitude Profile

Advertisement - Login to hide

EDDC

Details ICAO EDDC (DRS)
Name Dresden
Region Germany - Civil
Timezone Europe/Berlin (UTC+2.0)
Stats Elevation 752 ft / 229 m (AMSL)
Location 51.134366° 13.768065°
Runways 1
Magnetic Variation 3.855° E

METAR

EDDC 201020Z 06012KT CAVOK 19/01 Q1024 NOSIG

Decode

TAF

TAF EDDC 200500Z 2006/2106 08004KT CAVOK BECMG 2008/2010 07012KT TEMPO 2011/2018 08015G25KT BECMG 2018/2020 08007KT

Decode

Departure Runways

ID Width Length Bearing (true) Bearing (mag) Surface Threshold Offset Overrun Length
04 197 ft / 60 m 9,348 ft / 2,849 m 40.74° 36.89° Concrete 0 ft / 0 m 0 ft / 0 m
22 197 ft / 60 m 9,348 ft / 2,849 m 220.76° 216.91° Concrete 984 ft / 300 m 0 ft / 0 m

EDDN

Details ICAO EDDN (NUE)
Name Nurnberg
Region Germany - Civil
Timezone Europe/Berlin (UTC+2.0)
Stats Elevation 1,045 ft / 319 m (AMSL)
Location 49.498744° 11.077580°
Runways 1
Magnetic Variation 3.073° E

METAR

EDDN 201020Z 05010KT 020V090 9999 FEW043 BKN100 19/08 Q1021 NOSIG

Decode

TAF

TAF EDDN 200500Z 2006/2106 VRB03KT 9999 SCT040 BECMG 2006/2008 07008KT

Decode

Destination Runways

ID Width Length Bearing (true) Bearing (mag) Surface Threshold Offset Overrun Length
10 148 ft / 45 m 8,819 ft / 2,688 m 98.60° 95.53° Asphalt 0 ft / 0 m 0 ft / 0 m
28 148 ft / 45 m 8,819 ft / 2,688 m 278.63° 275.56° Asphalt 0 ft / 0 m 0 ft / 0 m

Approach Navaids

Runway Type Ident Frequency Range Bearing (true) Bearing (mag) Slope Elevation
10 Localiser INUE 111.30 MHz 18 nm / 33 km 98.64° 95.57° - 1,046 ft / 319 m (AMSL)
10 Glidescope INUE 111.30 MHz 10 nm / 19 km 98.61° 95.54° 3.00° 1,022 ft / 312 m (AMSL)
28 Localiser INUW 109.10 MHz 23 nm / 43 km 278.59° 275.51° - 1,122 ft / 342 m (AMSL)
28 Glidescope INUW 109.10 MHz 10 nm / 19 km 278.62° 275.54° 3.00° 1,046 ft / 319 m (AMSL)

Popular Alternatives